Total_Precipitation_Accumulation
0.04 0.04 0.06 0.10 0.12 0.08 0.05 0.05 0.07 0.09 0.11 0.15 0.16 0.14 0.12 0.12 0.13 0.16 0.18 0.13 0.12 0.08 0.10 0.10 0.10 0.14 0.11 0.06 0.16 0.28 0.25 0.15 0.31 0.35 0.19 0.11 0.08 0.09 0.09 0.08 0.04 0.03 0.03
0.10 0.20 0.30 0.35 0.32 0.21 0.09 0.05 0.05 0.06 0.05 0.05 0.05 0.05 0.05 0.04 0.03 0.02 0.02 0.02 0.02 0.02 0.02 0.03 0.04 0.04 0.05 0.03 0.06 0.17 0.21 0.17 0.25 0.28 0.21 0.09 0.05 0.04 0.02 0.03 0.03 0.01 0.01
0.42 0.81 0.91 0.70 0.63 0.48 0.17 0.03 0.02 0.02 0.01 0.01 0.00 0.00 0.00 0.00 0.00 0.00 0.00 0.00 0.00 0.00 0.00 0.00 0.01 0.01 0.02 0.02 0.04 0.10 0.14 0.15 0.14 0.19 0.23 0.10 0.03 0.03 0.03 0.03 0.03 0.03 0.02
0.81 1.24 1.32 0.98 0.80 0.56 0.20 0.05 0.02 0.02 0.01 0.01 0.01 0.01 0.00 0.00 0.00 0.00 0.00 0.01 0.00 0.00 0.00 0.00 0.00 0.01 0.01 0.03 0.03 0.05 0.09 0.12 0.09 0.08 0.10 0.12 0.12 0.09 0.04 0.03 0.02 0.03 0.03
0.74 0.83 0.79 0.67 0.48 0.28 0.15 0.08 0.07 0.09 0.08 0.06 0.06 0.04 0.01 0.00 0.00 0.00 0.00 0.00 0.00 0.00 0.00 0.00 0.00 0.01 0.02 0.04 0.06 0.07 0.09 0.11 0.11 0.12 0.13 0.16 0.20 0.17 0.12 0.05 0.03 0.07 0.07
0.45 0.38 0.28 0.23 0.18 0.13 0.08 0.05 0.06 0.10 0.11 0.08 0.07 0.07 0.05 0.04 0.02 0.01 0.01 0.00 0.00 0.00 0.00 0.00 0.01 0.01 0.02 0.03 0.05 0.06 0.08 0.12 0.15 0.18 0.18 0.19 0.18 0.16 0.18 0.13 0.10 0.12 0.13
0.33 0.34 0.29 0.21 0.15 0.10 0.05 0.03 0.02 0.04 0.06 0.05 0.05 0.06 0.07 0.07 0.05 0.04 0.02 0.02 0.00 0.00 0.01 0.01 0.01 0.01 0.01 0.03 0.04 0.05 0.06 0.09 0.13 0.15 0.16 0.19 0.22 0.26 0.29 0.29 0.25 0.26 0.28
0.21 0.24 0.21 0.17 0.12 0.08 0.05 0.03 0.02 0.03 0.03 0.03 0.03 0.04 0.06 0.06 0.06 0.10 0.06 0.04 0.02 0.01 0.01 0.01 0.00 0.00 0.01 0.03 0.06 0.07 0.09 0.10 0.11 0.10 0.16 0.19 0.22 0.34 0.37 0.39 0.45 0.39 0.39
0.10 0.10 0.09 0.07 0.06 0.05 0.04 0.04 0.03 0.02 0.02 0.02 0.03 0.04 0.06 0.08 0.09 0.10 0.09 0.07 0.07 0.03 0.02 0.01 0.01 0.00 0.01 0.02 0.04 0.05 0.08 0.10 0.10 0.14 0.20 0.24 0.28 0.37 0.39 0.43 0.49 0.49 0.45
0.06 0.06 0.05 0.04 0.03 0.02 0.02 0.02 0.02 0.02 0.01 0.01 0.01 0.01 0.03 0.06 0.08 0.09 0.10 0.11 0.11 0.09 0.07 0.05 0.03 0.02 0.02 0.02 0.03 0.04 0.07 0.10 0.14 0.20 0.26 0.29 0.33 0.38 0.37 0.44 0.49 0.49 0.51
0.03 0.03 0.02 0.02 0.02 0.01 0.01 0.01 0.01 0.02 0.02 0.01 0.01 0.01 0.03 0.04 0.06 0.09 0.12 0.13 0.11 0.10 0.09 0.09 0.08 0.06 0.05 0.05 0.07 0.11 0.13 0.18 0.21 0.24 0.30 0.35 0.39 0.41 0.39 0.46 0.48 0.44 0.50
0.01 0.01 0.01 0.01 0.01 0.01 0.01 0.01 0.02 0.02 0.02 0.02 0.01 0.01 0.01 0.02 0.03 0.06 0.09 0.10 0.11 0.11 0.11 0.11 0.11 0.09 0.06 0.06 0.10 0.17 0.16 0.17 0.20 0.31 0.42 0.46 0.49 0.44 0.40 0.45 0.43 0.41 0.50
0.00 0.00 0.00 0.01 0.01 0.01 0.02 0.02 0.02 0.01 0.01 0.01 0.01 0.00 0.00 0.00 0.01 0.03 0.05 0.06 0.08 0.10 0.10 0.11 0.10 0.10 0.08 0.07 0.10 0.17 0.17 0.20 0.30 0.42 0.44 0.42 0.47 0.43 0.39 0.40 0.37 0.38 0.49
0.00 0.00 0.00 0.00 0.00 0.01 0.01 0.01 0.00 0.00 0.00 0.00 0.00 0.01 0.01 0.01 0.01 0.01 0.02 0.03 0.05 0.07 0.09 0.11 0.11 0.11 0.09 0.08 0.12 0.16 0.20 0.28 0.41 0.41 0.29 0.29 0.37 0.37 0.33 0.30 0.27 0.28 0.32
0.00 0.00 0.00 0.01 0.01 0.01 0.01 0.02 0.02 0.02 0.03 0.03 0.04 0.04 0.04 0.05 0.05 0.05 0.04 0.04 0.04 0.05 0.08 0.10 0.10 0.10 0.09 0.08 0.13 0.19 0.14 0.15 0.20 0.19 0.14 0.14 0.21 0.29 0.28 0.23 0.22 0.22 0.22
0.03 0.04 0.04 0.05 0.04 0.04 0.04 0.03 0.03 0.03 0.04 0.04 0.03 0.03 0.03 0.03 0.03 0.03 0.03 0.03 0.03 0.05 0.09 0.12 0.12 0.11 0.10 0.10 0.10 0.10 0.10 0.09 0.07 0.07 0.07 0.05 0.04 0.09 0.16 0.20 0.21 0.22 0.21
0.10 0.07 0.05 0.03 0.02 0.01 0.01 0.00 0.00 0.00 0.01 0.01 0.02 0.02 0.02 0.02 0.02 0.02 0.02 0.03 0.03 0.05 0.09 0.12 0.14 0.14 0.15 0.12 0.08 0.06 0.05 0.04 0.03 0.03 0.03 0.03 0.02 0.02 0.04 0.07 0.10 0.12 0.14
0.03 0.01 0.00 0.00 0.00 0.00 0.00 0.00 0.00 0.00 0.00 0.00 0.01 0.01 0.02 0.02 0.03 0.04 0.05 0.06 0.07 0.07 0.10 0.14 0.16 0.18 0.19 0.15 0.11 0.08 0.05 0.03 0.03 0.02 0.02 0.02 0.01 0.01 0.01 0.01 0.02 0.04 0.05
0.00 0.00 0.00 0.00 0.00 0.00 0.00 0.00 0.00 0.00 0.00 0.01 0.03 0.05 0.05 0.06 0.07 0.08 0.10 0.12 0.13 0.12 0.12 0.14 0.17 0.19 0.21 0.19 0.14 0.11 0.07 0.05 0.04 0.02 0.01 0.02 0.02 0.00 0.01 0.01 0.01 0.01 0.02
0.00 0.00 0.00 0.00 0.00 0.00 0.00 0.00 0.00 0.00 0.00 0.01 0.03 0.05 0.08 0.10 0.10 0.12 0.14 0.16 0.17 0.17 0.16 0.15 0.17 0.21 0.25 0.24 0.18 0.13 0.09 0.08 0.06 0.04 0.01 0.01 0.00 0.00 0.00 0.01 0.02 0.01 0.00
0.00 0.00 0.00 0.00 0.00 0.00 0.00 0.01 0.01 0.01 0.01 0.02 0.02 0.03 0.07 0.12 0.14 0.16 0.19 0.20 0.21 0.23 0.24 0.22 0.21 0.24 0.28 0.32 0.24 0.17 0.12 0.11 0.09 0.05 0.02 0.00 0.00 0.00 0.00 0.01 0.02 0.01 0.00
0.00 0.00 0.00 0.00 0.00 0.00 0.01 0.03 0.03 0.03 0.03 0.04 0.05 0.06 0.10 0.15 0.15 0.19 0.22 0.25 0.27 0.31 0.32 0.34 0.33 0.32 0.33 0.35 0.33 0.23 0.15 0.15 0.13 0.07 0.03 0.00 0.00 0.00 0.00 0.00 0.01 0.00 0.00
0.00 0.00 0.00 0.00 0.00 0.01 0.03 0.04 0.04 0.04 0.05 0.06 0.08 0.10 0.13 0.22 0.32 0.31 0.27 0.28 0.30 0.31 0.34 0.39 0.43 0.44 0.42 0.39 0.36 0.30 0.20 0.19 0.19 0.10 0.04 0.00 0.00 0.00 0.00 0.00 0.00 0.00 0.00
0.00 0.00 0.00 0.01 0.02 0.03 0.04 0.05 0.06 0.08 0.09 0.10 0.10 0.12 0.16 0.27 0.48 0.54 0.44 0.36 0.33 0.34 0.38 0.39 0.41 0.45 0.49 0.45 0.37 0.30 0.25 0.26 0.27 0.14 0.03 0.00 0.00 0.00 0.00 0.00 0.00 0.00 0.00
0.00 0.01 0.02 0.03 0.03 0.04 0.05 0.06 0.09 0.13 0.14 0.14 0.13 0.13 0.17 0.27 0.46 0.58 0.56 0.48 0.44 0.42 0.42 0.42 0.41 0.40 0.38 0.40 0.39 0.29 0.27 0.32 0.31 0.14 0.03 0.00 0.00 0.00 0.00 0.00 0.00 0.00 0.00
0.01 0.02 0.04 0.06 0.06 0.08 0.09 0.09 0.12 0.17 0.20 0.19 0.18 0.18 0.19 0.25 0.42 0.60 0.65 0.52 0.43 0.42 0.41 0.36 0.34 0.31 0.26 0.27 0.32 0.30 0.27 0.30 0.25 0.11 0.02 0.00 0.00 0.00 0.00 0.00 0.00 0.00 0.00